| time (UTC) | temp C | wind direction | speed KPH | gust KPH | rain 1hr cm | rain 24hr cm | rain mn cm | humidity % | barometer mb |
| 20260509130107 | 16 | 130 | 3.2 | 9.7 | 0.00 | 0.00 | 0.00 | 88 | 1013.9 |
| 20260509124555 | 16 | 143 | 1.6 | 6.4 | 0.00 | 0.00 | 0.00 | 89 | 1014.0 |
| 20260509123053 | 16 | 131 | 1.6 | 9.7 | 0.00 | 0.00 | 0.00 | 89 | 1013.8 |
| 20260509121616 | 15 | 128 | 1.6 | 6.4 | 0.00 | 0.00 | 0.00 | 90 | 1013.9 |
| 20260509120056 | 15 | 127 | 1.6 | 4.8 | 0.00 | 0.00 | 0.00 | 91 | 1013.9 |
| 20260509114600 | 15 | 139 | 0.0 | 6.4 | 0.00 | 0.00 | 0.00 | 90 | 1014.2 |
| 20260509113058 | 15 | 150 | 0.0 | 11.3 | 0.00 | 0.00 | 0.00 | 90 | 1014.2 |
| 20260509111559 | 14 | 161 | 1.6 | 8.0 | 0.00 | 0.00 | 0.00 | 91 | 1014.3 |
| 20260509110100 | 13 | 139 | 0.0 | 4.8 | 0.00 | 0.00 | 0.00 | 92 | 1014.2 |
| 20260509104555 | 13 | 129 | 1.6 | 4.8 | 0.00 | 0.00 | 0.00 | 92 | 1014.2 |
| 20260509103101 | 13 | 143 | 1.6 | 3.2 | 0.00 | 0.00 | 0.00 | 92 | 1014.2 |
| 20260509101601 | 13 | 115 | 0.0 | 3.2 | 0.00 | 0.00 | 0.00 | 91 | 1014.2 |
| 20260509100051 | 13 | 121 | 0.0 | 8.0 | 0.00 | 0.00 | 0.00 | 91 | 1014.1 |
| 20260509094604 | 13 | 139 | 1.6 | 11.3 | 0.00 | 0.00 | 0.00 | 92 | 1014.1 |
| 20260509093054 | 13 | 107 | 0.0 | 3.2 | 0.00 | 0.00 | 0.00 | 92 | 1014.0 |
| 20260509091551 | 13 | 0 | 1.6 | 6.4 | 0.00 | 0.00 | 0.00 | 91 | 1013.8 |
| 20260509090059 | 13 | 0 | 0.0 | 3.2 | 0.00 | 0.00 | 0.00 | 90 | 1013.9 |
| 20260509084559 | 13 | 99 | 1.6 | 6.4 | 0.00 | 0.00 | 0.00 | 90 | 1014.0 |
| 20260509083101 | 13 | 145 | 0.0 | 8.0 | 0.00 | 0.00 | 0.00 | 89 | 1014.0 |
| 20260509081550 | 13 | 111 | 1.6 | 4.8 | 0.00 | 0.00 | 0.00 | 89 | 1014.0 |
| 20260509080056 | 13 | 85 | 0.0 | 8.0 | 0.00 | 0.00 | 0.00 | 88 | 1014.0 |
| 20260509074553 | 13 | 106 | 0.0 | 4.8 | 0.00 | 0.00 | 0.00 | 88 | 1014.3 |
| 20260509073052 | 13 | 123 | 1.6 | 4.8 | 0.00 | 0.00 | 0.00 | 86 | 1014.5 |
| 20260509071552 | 13 | 0 | 0.0 | 4.8 | 0.00 | 0.00 | 0.00 | 86 | 1014.3 |
| 20260509070057 | 13 | 101 | 1.6 | 3.2 | 0.00 | 0.00 | 0.00 | 85 | 1014.3 |
| 20260509064554 | 13 | 153 | 0.0 | 4.8 | 0.00 | 0.00 | 0.00 | 84 | 1014.2 |
| 20260509063100 | 13 | 132 | 0.0 | 6.4 | 0.00 | 0.00 | 0.00 | 82 | 1014.3 |
| 20260509061555 | 13 | 143 | 0.0 | 6.4 | 0.00 | 0.00 | 0.00 | 81 | 1014.3 |
| 20260509060107 | 13 | 0 | 1.6 | 8.0 | 0.00 | 0.00 | 0.00 | 79 | 1014.5 |
| 20260509054551 | 13 | 110 | 0.0 | 9.7 | 0.00 | 0.00 | 0.00 | 77 | 1014.4 |
| 20260509053112 | 13 | 131 | 1.6 | 4.8 | 0.00 | 0.00 | 0.00 | 76 | 1014.4 |
| 20260509051554 | 13 | 168 | 1.6 | 8.0 | 0.00 | 0.00 | 0.00 | 76 | 1014.5 |
| 20260509050049 | 13 | 98 | 1.6 | 8.0 | 0.00 | 0.00 | 0.00 | 76 | 1014.7 |
| 20260509044626 | 13 | 167 | 1.6 | 4.8 | 0.00 | 0.00 | 0.00 | 77 | 1014.6 |
| 20260509043138 | 13 | 0 | 1.6 | 11.3 | 0.00 | 0.00 | 0.00 | 74 | 1014.7 |
| 20260509041550 | 13 | 98 | 1.6 | 12.9 | 0.00 | 0.00 | 0.00 | 77 | 1014.9 |
| 20260509040052 | 13 | 162 | 1.6 | 8.0 | 0.00 | 0.00 | 0.00 | 79 | 1015.1 |
| 20260509034557 | 13 | 151 | 0.0 | 11.3 | 0.00 | 0.00 | 0.00 | 79 | 1015.0 |
| 20260509033055 | 13 | 123 | 1.6 | 11.3 | 0.00 | 0.00 | 0.00 | 78 | 1015.1 |
| 20260509031602 | 13 | 134 | 1.6 | 4.8 | 0.00 | 0.00 | 0.00 | 76 | 1015.2 |
| 20260509030110 | 13 | 131 | 1.6 | 6.4 | 0.00 | 0.00 | 0.00 | 73 | 1015.0 |
| 20260509024558 | 13 | 96 | 0.0 | 3.2 | 0.00 | 0.00 | 0.00 | 74 | 1015.0 |
| 20260509023057 | 13 | 115 | 1.6 | 3.2 | 0.00 | 0.00 | 0.00 | 78 | 1015.0 |
| 20260509021555 | 12 | 160 | 0.0 | 4.8 | 0.00 | 0.00 | 0.00 | 78 | 1015.1 |
| 20260509014555 | 13 | 0 | 0.0 | 9.7 | 0.00 | 0.00 | 0.00 | 76 | 1015.0 |
| 20260509013059 | 12 | 117 | 0.0 | 4.8 | 0.00 | 0.00 | 0.00 | 76 | 1014.8 |
| 20260509011557 | 13 | 0 | 1.6 | 4.8 | 0.00 | 0.00 | 0.00 | 75 | 1014.9 |
| 20260509010054 | 13 | 127 | 0.0 | 6.4 | 0.00 | 0.00 | 0.00 | 76 | 1014.9 |
| 20260509004603 | 13 | 141 | 1.6 | 4.8 | 0.00 | 0.00 | 0.00 | 78 | 1014.7 |
| 20260509003058 | 13 | 159 | 1.6 | 6.4 | 0.00 | 0.00 | 0.00 | 77 | 1014.5 |
| 20260509001552 | 13 | 140 | 1.6 | 3.2 | 0.00 | 0.00 | 0.00 | 75 | 1014.5 |
| 20260508234557 | 14 | 82 | 1.6 | 8.0 | 0.00 | 0.05 | 0.00 | 71 | 1014.3 |
| 20260508233057 | 14 | 134 | 3.2 | 8.0 | 0.00 | 0.05 | 0.00 | 71 | 1014.2 |
| 20260508231555 | 15 | 134 | 1.6 | 6.4 | 0.00 | 0.05 | 0.00 | 71 | 1014.2 |
| 20260508230054 | 16 | 157 | 1.6 | 6.4 | 0.00 | 0.05 | 0.00 | 68 | 1014.1 |
| 20260508224635 | 16 | 117 | 1.6 | 11.3 | 0.00 | 0.23 | 0.00 | 66 | 1014.1 |
| 20260508223055 | 16 | 143 | 4.8 | 12.9 | 0.00 | 0.23 | 0.00 | 64 | 1014.1 |
| 20260508221554 | 16 | 130 | 1.6 | 17.7 | 0.00 | 0.23 | 0.00 | 63 | 1014.0 |
| 20260508220057 | 17 | 134 | 1.6 | 9.7 | 0.00 | 0.23 | 0.00 | 59 | 1013.9 |
| 20260508214552 | 17 | 116 | 3.2 | 12.9 | 0.00 | 0.28 | 0.00 | 61 | 1013.9 |
| 20260508213054 | 17 | 129 | 4.8 | 16.1 | 0.00 | 0.28 | 0.00 | 59 | 1013.9 |
| 20260508211557 | 17 | 148 | 3.2 | 17.7 | 0.00 | 0.28 | 0.00 | 60 | 1013.8 |
| 20260508210056 | 17 | 211 | 1.6 | 12.9 | 0.00 | 0.28 | 0.00 | 63 | 1014.0 |
| 20260508204555 | 17 | 172 | 1.6 | 19.3 | 0.00 | 0.28 | 0.00 | 62 | 1014.1 |
| 20260508203103 | 17 | 42 | 1.6 | 16.1 | 0.00 | 0.28 | 0.00 | 61 | 1014.0 |
| 20260508201602 | 18 | 58 | 1.6 | 8.0 | 0.00 | 0.28 | 0.00 | 55 | 1014.0 |
| 20260508200054 | 17 | 142 | 3.2 | 9.7 | 0.00 | 0.28 | 0.00 | 59 | 1014.1 |
| 20260508194553 | 17 | 139 | 1.6 | 11.3 | 0.00 | 0.28 | 0.00 | 58 | 1014.2 |
| 20260508193100 | 17 | 165 | 3.2 | 14.5 | 0.00 | 0.28 | 0.00 | 59 | 1014.2 |
| 20260508191555 | 17 | 91 | 3.2 | 8.0 | 0.00 | 0.28 | 0.00 | 56 | 1014.2 |
| 20260508190051 | 16 | 125 | 4.8 | 16.1 | 0.00 | 0.28 | 0.00 | 56 | 1014.4 |
| 20260508184556 | 16 | 149 | 4.8 | 16.1 | 0.00 | 0.28 | 0.00 | 56 | 1014.9 |
| 20260508183053 | 17 | 157 | 3.2 | 12.9 | 0.00 | 0.28 | 0.00 | 55 | 1014.7 |
| 20260508181556 | 17 | 75 | 4.8 | 11.3 | 0.00 | 0.28 | 0.00 | 51 | 1014.9 |
| 20260508180056 | 17 | 148 | 3.2 | 14.5 | 0.00 | 0.28 | 0.00 | 52 | 1015.2 |
| 20260508174558 | 17 | 221 | 1.6 | 6.4 | 0.00 | 0.28 | 0.00 | 56 | 1015.2 |
| 20260508173054 | 17 | 193 | 3.2 | 11.3 | 0.00 | 0.28 | 0.00 | 53 | 1015.4 |
| 20260508171555 | 17 | 110 | 3.2 | 11.3 | 0.00 | 0.28 | 0.00 | 51 | 1015.6 |
| 20260508170100 | 18 | 194 | 0.0 | 6.4 | 0.00 | 0.28 | 0.00 | 54 | 1015.3 |
| 20260508164554 | 17 | 77 | 3.2 | 12.9 | 0.00 | 0.28 | 0.00 | 58 | 1015.5 |
| 20260508163055 | 17 | 326 | 3.2 | 11.3 | 0.00 | 0.28 | 0.00 | 53 | 1015.8 |
| 20260508161600 | 17 | 349 | 0.0 | 8.0 | 0.00 | 0.28 | 0.00 | 41 | 1015.9 |
| 20260508160055 | 17 | 11 | 3.2 | 12.9 | 0.00 | 0.28 | 0.00 | 42 | 1015.9 |
| 20260508154611 | 17 | 316 | 1.6 | 24.1 | 0.00 | 0.28 | 0.00 | 44 | 1015.9 |
| 20260508153057 | 16 | 301 | 4.8 | 11.3 | 0.00 | 0.28 | 0.00 | 43 | 1015.9 |
| 20260508151554 | 16 | 251 | 4.8 | 12.9 | 0.00 | 0.28 | 0.00 | 45 | 1016.2 |
| 20260508150108 | 16 | 329 | 1.6 | 11.3 | 0.00 | 0.28 | 0.00 | 53 | 1016.2 |
| 20260508144556 | 15 | 328 | 1.6 | 12.9 | 0.00 | 0.28 | 0.00 | 55 | 1016.2 |
| 20260508143124 | 15 | 334 | 1.6 | 11.3 | 0.00 | 0.28 | 0.00 | 60 | 1016.3 |
| 20260508141553 | 15 | 16 | 1.6 | 12.9 | 0.00 | 0.28 | 0.00 | 58 | 1016.3 |
| 20260508140107 | 14 | 334 | 4.8 | 11.3 | 0.00 | 0.28 | 0.00 | 60 | 1016.1 |
| 20260508134556 | 13 | 340 | 4.8 | 14.5 | 0.00 | 0.28 | 0.00 | 62 | 1016.1 |
| 20260508133104 | 13 | 317 | 6.4 | 16.1 | 0.00 | 0.28 | 0.00 | 70 | 1016.0 |
| 20260508131601 | 12 | 335 | 6.4 | 14.5 | 0.00 | 0.28 | 0.00 | 70 | 1016.1 |